FW8987 Weather Reports


time (UTC)temp
C
wind
direction
speed
KPH
gust
KPH
rain 1hr
cm
rain 24hr
cm
rain mn
cm
humidity
%
barometer
mb
20260509195029 11 198 4.8 11.3 0.00 0.00 0.00 42 1019.9
20260509194024 11 199 3.2 6.4 0.00 0.00 0.00 43 1020.0
20260509193019 11 183 1.6 6.4 0.00 0.00 0.00 43 1019.8
20260509192035 11 192 3.2 9.7 0.00 0.00 0.00 42 1019.7
20260509191030 11 181 1.6 3.2 0.00 0.00 0.00 43 1019.8
20260509190046 11 186 0.0 1.6 0.00 0.00 0.00 43 1019.8
20260509185041 12 189 0.0 1.6 0.00 0.00 0.00 41 1019.9
20260509184015 12 185 0.0 1.6 0.00 0.00 0.00 39 1019.8
20260509183032 12 187 1.6 4.8 0.00 0.00 0.00 37 1019.7
20260509182026 12 183 1.6 4.8 0.00 0.00 0.00 36 1019.8
20260509181021 13 194 1.6 6.4 0.00 0.00 0.00 35 1019.8
20260509180016 13 189 1.6 3.2 0.00 0.00 0.00 35 1019.7
20260509175032 13 184 1.6 6.4 0.00 0.00 0.00 33 1019.7
20260509174028 14 187 3.2 9.7 0.00 0.00 0.00 32 1019.8
20260509173043 14 188 1.6 6.4 0.00 0.00 0.00 33 1019.7
20260509172017 14 195 3.2 9.7 0.00 0.00 0.00 31 1019.9
20260509171033 14 196 1.6 3.2 0.00 0.00 0.00 32 1019.9
20260509170028 15 192 1.6 3.2 0.00 0.00 0.00 31 1020.0
20260509165023 15 188 1.6 6.4 0.00 0.00 0.00 28 1020.0
20260509164018 15 200 4.8 9.7 0.00 0.00 0.00 27 1020.2
20260509163034 15 198 4.8 9.7 0.00 0.00 0.00 26 1020.3
20260509162054 15 210 6.4 14.5 0.00 0.00 0.00 26 1020.4
20260509161025 16 199 3.2 6.4 0.00 0.00 0.00 28 1020.5
20260509160039 16 198 3.2 6.4 0.00 0.00 0.00 27 1020.5
20260509155035 16 195 3.2 11.3 0.00 0.00 0.00 27 1020.6
20260509154031 16 200 4.8 14.5 0.00 0.00 0.00 26 1020.8
20260509153025 16 192 3.2 6.4 0.00 0.00 0.00 27 1021.0
20260509152041 16 182 4.8 11.3 0.00 0.00 0.00 27 1021.1
20260509151016 16 187 4.8 11.3 0.00 0.00 0.00 27 1021.2
20260509150032 16 188 3.2 11.3 0.00 0.00 0.00 28 1021.3
20260509145027 16 178 3.2 6.4 0.00 0.00 0.00 27 1021.4
20260509144022 16 189 3.2 9.7 0.00 0.00 0.00 27 1021.6
20260509143018 16 188 4.8 11.3 0.00 0.00 0.00 28 1021.8
20260509142033 16 172 4.8 9.7 0.00 0.00 0.00 28 1021.8
20260509141028 16 204 4.8 9.7 0.00 0.00 0.00 27 1021.9
20260509140023 16 163 4.8 9.7 0.00 0.00 0.00 27 1021.9
20260509135018 16 206 6.4 11.3 0.00 0.00 0.00 28 1022.4
20260509134034 16 187 3.2 16.1 0.00 0.00 0.00 27 1022.5
20260509133049 17 174 3.2 11.3 0.00 0.00 0.00 27 1022.6
20260509132025 17 222 4.8 11.3 0.00 0.00 0.00 26 1022.7
20260509131019 17 177 4.8 9.7 0.00 0.00 0.00 27 1022.8
20260509130035 16 190 4.8 11.3 0.00 0.00 0.00 25 1022.9
20260509125030 16 187 4.8 11.3 0.00 0.00 0.00 26 1023.3
20260509124026 16 207 4.8 12.9 0.00 0.00 0.00 26 1023.4
20260509123021 16 211 6.4 12.9 0.00 0.00 0.00 27 1023.5
20260509122016 16 211 6.4 16.1 0.00 0.00 0.00 26 1023.7
20260509121031 16 166 3.2 11.3 0.00 0.00 0.00 27 1023.9
20260509120025 16 197 4.8 12.9 0.00 0.00 0.00 28 1024.0
20260509115021 15 222 6.4 12.9 0.00 0.00 0.00 27 1024.2
20260509114015 16 212 6.4 11.3 0.00 0.00 0.00 27 1024.3
20260509113031 16 193 4.8 12.9 0.00 0.00 0.00 27 1024.4
20260509112027 15 191 4.8 14.5 0.00 0.00 0.00 27 1024.5
20260509111023 15 206 8.0 14.5 0.00 0.00 0.00 27 1024.6
20260509110018 15 199 4.8 11.3 0.00 0.00 0.00 28 1024.8
20260509105033 15 202 6.4 11.3 0.00 0.00 0.00 28 1024.8
20260509104029 15 172 6.4 12.9 0.00 0.00 0.00 27 1025.0
20260509103023 15 191 6.4 12.9 0.00 0.00 0.00 29 1025.2
20260509102018 15 197 8.0 14.5 0.00 0.00 0.00 28 1025.1
20260509101033 15 179 4.8 14.5 0.00 0.00 0.00 29 1025.2
20260509100109 15 165 4.8 11.3 0.00 0.00 0.00 29 1025.3
20260509095104 15 191 4.8 14.5 0.00 0.00 0.00 29 1025.3
20260509094019 14 181 4.8 11.3 0.00 0.00 0.00 29 1025.4
20260509093015 14 183 6.4 16.1 0.00 0.00 0.00 31 1025.6
20260509092031 13 169 4.8 12.9 0.00 0.00 0.00 30 1025.7
20260509091026 15 186 4.8 11.3 0.00 0.00 0.00 30 1025.8
20260509090022 14 179 3.2 9.7 0.00 0.00 0.00 31 1025.8
20260509085016 13 180 4.8 14.5 0.00 0.00 0.00 30 1026.0
20260509084031 13 205 6.4 12.9 0.00 0.00 0.00 29 1026.1
20260509083027 13 209 6.4 14.5 0.00 0.00 0.00 28 1026.2
20260509082026 12 181 6.4 16.1 0.00 0.00 0.00 27 1026.0
20260509081017 12 203 6.4 17.7 0.00 0.00 0.00 28 1026.3
20260509080033 12 217 6.4 12.9 0.00 0.00 0.00 31 1026.4
20260509075028 12 213 6.4 14.5 0.00 0.00 0.00 32 1026.5
20260509074043 12 211 6.4 16.1 0.00 0.00 0.00 32 1026.7
20260509073019 11 193 4.8 12.9 0.00 0.00 0.00 31 1026.6
20260509072034 12 198 4.8 9.7 0.00 0.00 0.00 30 1026.7
20260509071030 11 198 4.8 12.9 0.00 0.00 0.00 30 1026.7
20260509070025 11 193 3.2 6.4 0.00 0.00 0.00 32 1026.6
20260509065059 11 188 3.2 9.7 0.00 0.00 0.00 32 1026.7
20260509064034 11 204 4.8 9.7 0.00 0.00 0.00 31 1026.7
20260509063029 11 187 4.8 14.5 0.00 0.00 0.00 32 1026.7
20260509062024 10 184 4.8 11.3 0.00 0.00 0.00 32 1026.6
20260509061024 10 200 4.8 20.9 0.00 0.00 0.00 33 1026.7
20260509060034 10 188 3.2 9.7 0.00 0.00 0.00 36 1026.7
20260509055130 10 164 1.6 4.8 0.00 0.00 0.00 38 1026.6
20260509054047 10 188 1.6 3.2 0.00 0.00 0.00 37 1026.8
20260509053021 9 185 0.0 3.2 0.00 0.00 0.00 39 1026.7
20260509052017 9 153 1.6 4.8 0.00 0.00 0.00 43 1026.9
20260509051052 9 173 0.0 1.6 0.00 0.00 0.00 43 1026.8
20260509050028 8 179 0.0 1.6 0.00 0.00 0.00 45 1026.7
20260509045042 7 171 1.6 3.2 0.00 0.00 0.00 49 1026.7
20260509044018 6 171 1.6 4.8 0.00 0.00 0.00 56 1026.7
20260509043033 5 165 1.6 3.2 0.00 0.00 0.00 59 1026.7
20260509042028 3 158 0.0 4.8 0.00 0.00 0.00 72 1026.7
20260509041024 3 0.0 0.0 0.00 0.00 0.00 75 1026.5
20260509040020 3 0.0 0.0 0.00 0.00 0.00 75 1026.5
20260509035034 1 0.0 0.0 0.00 0.00 0.00 79 1026.5
20260509034030 1 183 0.0 1.6 0.00 0.00 0.00 81 1026.5
20260509033025 0 0.0 0.0 0.00 0.00 0.00 84 1026.7
20260509032040 0 0.0 0.0 0.00 0.00 0.00 82 1026.6
20260509031015 1 0.0 0.0 0.00 0.00 0.00 82 1026.6
20260509030030 1 0.0 0.0 0.00 0.00 0.00 81 1026.6
20260509025026 1 0.0 0.0 0.00 0.00 0.00 80 1026.7
20260509024021 1 0.0 0.0 0.00 0.00 0.00 80 1026.6
20260509023016 1 0.0 0.0 0.00 0.00 0.00 78 1026.7
20260509022051 1 0.0 0.0 0.00 0.00 0.00 79 1026.7
20260509021026 2 0.0 0.0 0.00 0.00 0.00 75 1026.8
20260509020022 2 176 0.0 1.6 0.00 0.00 0.00 73 1026.8
20260509015016 2 0.0 0.0 0.00 0.00 0.00 73 1026.8
20260509014031 2 0.0 0.0 0.00 0.00 0.00 75 1026.9
20260509013026 3 0.0 0.0 0.00 0.00 0.00 75 1026.9
20260509012022 3 179 0.0 1.6 0.00 0.00 0.00 70 1026.9
20260509011017 3 171 0.0 1.6 0.00 0.00 0.00 67 1026.9
20260509010033 3 146 0.0 3.2 0.00 0.00 0.00 67 1026.9
20260509005027 3 0.0 0.0 0.00 0.00 0.00 65 1027.0
20260509004023 4 169 0.0 1.6 0.00 0.00 0.00 61 1027.0
20260509003018 5 171 0.0 1.6 0.00 0.00 0.00 58 1027.0
20260509002033 5 0.0 0.0 0.00 0.00 0.00 56 1027.0
20260509001029 4 0.0 0.0 0.00 0.00 0.00 60 1027.0
20260509000023 4 177 0.0 1.6 0.00 0.00 0.00 61 1027.1
20260508235019 5 176 0.0 1.6 0.00 0.00 0.00 59 1027.0
20260508234034 5 0.0 0.0 0.00 0.00 0.00 60 1027.1
20260508233030 5 0.0 0.0 0.00 0.00 0.00 57 1027.1
20260508232045 6 170 0.0 1.6 0.00 0.00 0.00 56 1026.9
20260508231020 6 172 0.0 1.6 0.00 0.00 0.00 55 1026.9
20260508230017 6 164 0.0 1.6 0.00 0.00 0.00 52 1026.9
20260508225052 7 166 0.0 1.6 0.00 0.00 0.00 52 1026.7
20260508224027 7 173 0.0 1.6 0.00 0.00 0.00 51 1026.9
20260508223022 7 185 0.0 1.6 0.00 0.00 0.00 50 1026.9
20260508222017 7 186 0.0 3.2 0.00 0.00 0.00 50 1026.8
20260508221032 7 196 0.0 4.8 0.00 0.00 0.00 50 1026.8
20260508220028 8 179 1.6 9.7 0.00 0.00 0.00 49 1026.7
20260508215044 8 185 1.6 4.8 0.00 0.00 0.00 49 1026.8
20260508214018 8 183 1.6 4.8 0.00 0.00 0.00 49 1026.6
20260508213034 8 182 0.0 3.2 0.00 0.00 0.00 48 1026.6
20260508212029 8 184 1.6 6.4 0.00 0.00 0.00 47 1026.4
20260508211025 9 193 1.6 3.2 0.00 0.00 0.00 48 1026.4
20260508210020 9 193 1.6 6.4 0.00 0.00 0.00 46 1026.3
20260508205023 10 186 1.6 6.4 0.00 0.00 0.00 46 1026.2
20260508204031 10 172 1.6 11.3 0.00 0.00 0.00 46 1026.2
20260508203027 10 190 3.2 11.3 0.00 0.00 0.00 45 1026.1
20260508202022 10 194 1.6 4.8 0.00 0.00 0.00 46 1025.9
20260508201016 10 185 1.6 6.4 0.00 0.00 0.00 45 1025.9
20260508200032 11 177 3.2 9.7 0.00 0.00 0.00 44 1025.7